EW5412 Weather Reports


time (UTC)temp
F
wind
direction
speed
knots
gust
knots
rain 1hr
in
rain 24hr
in
rain mn
in
humidity
%
barometer
mb
20260503184558 57 304 12.2 21.7 0.00 0.00 0.00 53 1013.5
20260503183101 58 283 11.3 21.7 0.00 0.00 0.00 50 1013.4
20260503181621 58 283 9.6 21.7 0.00 0.00 0.00 49 1013.5
20260503180122 59 294 13.0 19.1 0.00 0.00 0.00 48 1013.5
20260503174556 58 297 9.6 18.2 0.00 0.00 0.00 50 1013.7
20260503173056 58 290 8.7 20.9 0.00 0.00 0.00 49 1014.1
20260503171548 58 295 10.4 19.1 0.00 0.00 0.00 50 1014.4
20260503081527 42 290 2.6 6.1 0.00 0.00 0.00 66 1016.5
20260503071525 42 285 3.5 7.0 0.00 0.00 0.00 64 1016.7
20260503060116 39 246 0.9 2.6 0.00 0.00 0.00 70 1017.4
20260503054556 38 273 0.9 1.7 0.00 0.00 0.00 72 1017.6
20260503053052 37 273 0.0 0.9 0.00 0.00 0.00 76 1017.6
20260503051551 36 273 0.0 0.0 0.00 0.00 0.00 78 1017.8
20260503050050 36 273 0.0 0.0 0.00 0.00 0.00 77 1017.8
20260503044618 36 272 0.0 0.0 0.00 0.00 0.00 77 1017.9
20260503043047 37 273 0.0 0.9 0.00 0.00 0.00 79 1017.8
20260503041548 37 272 0.0 0.0 0.00 0.00 0.00 76 1017.9
20260503040043 37 272 0.0 0.9 0.00 0.00 0.00 74 1018.0
20260503034543 37 273 0.0 0.9 0.00 0.00 0.00 73 1018.0
20260503033041 37 273 0.0 0.9 0.00 0.00 0.00 74 1018.0
20260503031542 37 272 0.0 1.7 0.00 0.00 0.00 76 1018.1
20260503030043 36 272 0.9 1.7 0.00 0.00 0.00 79 1018.1
20260503024540 36 272 0.0 0.0 0.00 0.00 0.00 73 1018.1
20260503023042 38 273 0.0 0.9 0.00 0.00 0.00 71 1018.1
20260503021540 38 273 0.0 2.6 0.00 0.00 0.00 71 1018.1
20260503020039 39 272 0.0 0.9 0.00 0.00 0.00 68 1017.9
20260503014549 40 273 0.0 0.0 0.00 0.00 0.00 66 1017.9
20260503013037 41 273 0.0 0.9 0.00 0.00 0.00 61 1017.8
20260503011537 42 32 0.0 0.0 0.00 0.00 0.00 54 1017.8
20260503010038 44 32 0.0 0.0 0.00 0.00 0.00 49 1017.8
20260503004536 47 32 0.0 0.0 0.00 0.00 0.00 43 1017.8
20260503003045 49 32 0.0 1.7 0.00 0.00 0.00 40 1017.8
20260503001536 50 49 1.7 7.0 0.00 0.00 0.00 40 1017.8
20260503000043 51 41 1.7 5.2 0.00 0.00 0.00 39 1017.7
20260502234549 51 46 3.5 8.7 0.00 0.00 0.00 38 1017.6
20260502233031 51 89 2.6 6.1 0.00 0.00 0.00 40 1017.7
20260502231533 50 13 5.2 11.3 0.00 0.00 0.00 40 1017.8
20260502230031 51 16 4.3 8.7 0.00 0.00 0.00 39 1017.9
20260502224532 50 4 7.0 11.3 0.00 0.00 0.00 39 1017.9
20260502223038 50 44 7.0 12.2 0.00 0.00 0.00 37 1017.9
20260502221529 50 31 7.0 13.9 0.00 0.00 0.00 37 1017.9
20260502220029 50 46 5.2 14.8 0.00 0.00 0.00 37 1017.9
20260502214528 50 6 7.0 13.0 0.00 0.00 0.00 40 1017.8
20260502213027 50 47 6.1 12.2 0.00 0.00 0.00 38 1017.9
20260502211533 50 25 7.0 14.8 0.00 0.00 0.00 42 1017.8
20260502210025 50 13 8.7 13.9 0.00 0.00 0.00 39 1017.8
20260502204535 51 54 7.8 16.5 0.00 0.00 0.00 39 1018.0
20260502203030 50 22 7.0 13.9 0.00 0.00 0.00 41 1018.1
20260502201520 51 352 10.4 13.0 0.00 0.00 0.00 40 1018.2
20260502200017 50 56 7.0 14.8 0.00 0.00 0.00 42 1018.4
20260502194520 49 18 7.8 12.2 0.00 0.00 0.00 46 1018.5
20260502193014 49 344 5.2 11.3 0.00 0.00 0.00 44 1018.6
20260502191512 49 36 8.7 13.0 0.00 0.00 0.00 42 1018.7
20260502190011 48 36 2.6 9.6 0.00 0.00 0.00 46 1018.8